Printer-friendly version

IAU Minor Planet Center

Minor Planet Center

MPEC 2004-O44 : 2001 LM5

The following Minor Planet Electronic Circular may be linked-to from your own Web pages, but must not otherwise be redistributed electronically.


Read MPEC 2004-O43 Read MPEC 2004-O45


M.P.E.C. 2004-O44                                Issued 2004 July 29, 11:31 UT

     The Minor Planet Electronic Circulars contain information on unusual
         minor planets and routine data on comets.  They are published
   on behalf of Commission 20 of the International Astronomical Union by the
          Minor Planet Center, Smithsonian Astrophysical Observatory,
                          Cambridge, MA 02138, U.S.A.

                  Supported in part by the Brinson Foundation
             Prepared using the Tamkin Foundation Computer Network

                              MPC@CFA.HARVARD.EDU
          URL http://cfa-www.harvard.edu/iau/mpc.html  ISSN 1523-6714

                                   2001 LM5

                           Revision to MPEC 2001-M04

Additional Observations:
     K01L05M 2C2004 07 21.56210802 53 50.013+30 33 12.19         21.6 R EO044568
     K01L05M 2C2004 07 21.56487202 53 50.556+30 33 14.92         21.6 R EO044568
     K01L05M 2C2004 07 22.55762802 57 06.139+30 49 10.25         21.5 R EO044568
     K01L05M 2C2004 07 22.56037302 57 06.677+30 49 13.01         21.7 R EO044568

Observer details:
568 Mauna Kea.  Observer F. Bernardi.  Measurers F. Bernardi, D. J. Tholen.

First and last observations above in comparison with prediction:
Residuals in seconds of arc, reference and Delta-T
040721 568  1.0-  0.3+    040722 568  1.0-  0.2+    MPO 18319   -0.0019 day

Orbital elements:
2001 LM5
Epoch 2004 July 14.0 TT = JDT 2453200.5                 MPC
M 189.91813              (2000.0)            P               Q
n   0.72109968     Peri.  255.60266     -0.94661813     -0.23816850
a   1.2316080      Node   270.26832     +0.30775970     -0.86821568
e   0.0344939      Incl.   12.54666     -0.09590660     -0.43528990
P   1.37           H   19.3           G   0.15           U   4
Residuals in seconds of arc
010613 704  0.8-  0.5+    010615 704  0.1-  0.4-    010624 360  0.1+  1.1-
010613 704  0.2-  0.8+    010615 704  0.1-  1.0-    010624 360  0.0   0.6-
010613 704  1.1-  0.1-    010615 704  0.4-  0.3-    010629 688  0.7+  0.3-
010613 704  1.0-  0.1-    010615 422  0.1+  0.3-    010629 688  0.6+  0.2+
010613 704  0.3+  0.4-    010615 422  0.2+  0.7-    010629 151  2.2-  0.8-
010613 620 (3.2+  2.2+)   010616 704  0.7-  0.6-    010629 151  0.9+  0.2+
010613 620 (4.7+  0.5+)   010616 704  0.3-  0.4-    010629 151  2.1-  0.1-
010614 808 (2.0-  3.5+)   010616 704  0.7+  0.1+    010629 151  0.5+  0.1-
010614 808  0.2-  0.1+    010616 670  0.9-  0.8-    010629 151  0.2+  0.2+
010614 808  1.8+  0.3-    010616 704  1.0-  0.0     010629 151  0.1-  0.9+
010614 808  1.9+  2.5-    010616 704  0.6-  0.5+    010714 670  0.8+  0.6+
010614 808  0.5+  0.5-    010616 670  0.5+  0.2-    010714 670  0.7+  1.2+
010614 808  0.0   0.4-    010616 670  0.1-  0.6+    010714 118  0.1+  0.4-
010614 808  2.1+  0.9+    010616 428  0.0   0.4+    010714 118  0.1-  0.6+
010614 704  0.3+  0.8-    010617 860  1.8-  0.8+    010714 118  0.3-  0.2-
010614 704  0.5-  0.5+    010617 860  0.1+  2.0+    010720 157  0.1+  0.2-
010614 704  1.0-  1.0-    010617 860  0.8+  1.6-    010720 157  0.9+  0.2+
010614 704  0.4-  1.7-    010617 860  0.0   1.6+    010720 157  0.9-  0.1+
010614 046  0.5-  0.7-    010617 422  0.4-  0.0     010721 711  0.8-  0.5+
010614 046  0.1-  0.1-    010618 587  1.1-  2.4+    010721 711 (2.7-  7.0-)
010614 046  0.8-  0.5+    010618 587  1.1-  2.1+    010808 413  0.3+  0.8+
010615 046  0.5-  0.3-    010620 670  2.1+  0.9-    010808 413  0.8+  0.9+
010615 808  0.4-  1.6+    010620 670  0.7-  0.5+    010808 413  0.8+  0.4+
010615 808  0.6+  0.4+    010623 670  0.0   0.2-    010809 413  0.2+  0.4+
010615 808  0.1+  0.5+    010623 670  1.1-  0.9+    010809 413  0.3+  0.3+
010615 808  0.3-  1.6+    010623 670  0.8-  0.7+    010809 413  0.2+  0.3+
010615 808  0.1-  1.1+    010623 151  0.8+  0.3+    010908 658  0.6+  0.3+
010615 808  1.1+  2.3-    010623 151  0.3+  0.3-    010908 658  0.3+  0.4+
010615 808  1.7+  1.8-    010623 151  1.0+  1.2-    010908 658  0.1+  0.4+
010615 854  1.1-  1.2-    010623 151 (4.0-  2.6-)   040721 568  0.0   0.0
010615 854  0.7+  0.5+    010624 704  0.4+  0.2+    040721 568  0.0   0.0
010615 854  0.6-  0.3-    010624 704  0.5+  0.3+    040722 568  0.0   0.1-
010615 704  0.3+  0.4-    010624 704  0.7+  0.7+    040722 568  0.0   0.0
010615 704  0.3+  0.5-    010624 704  0.7+  0.9+

Ephemeris:
2001 LM5                 a,e,i = 1.23, 0.03, 13                  q = 1.1891
Date    TT    R. A. (2000) Decl.     Delta      r     Elong.  Phase     V
2004 07 24    03 01.85   +31 11.8    1.187    1.272    70.1    48.6    22.0
2004 08 03    03 35.59   +33 32.1    1.143    1.271    71.9    49.4    22.0
2004 08 13    04 10.53   +35 20.2    1.097    1.268    73.8    50.1    21.9
2004 08 23    04 46.35   +36 32.4    1.049    1.265    75.8    50.8    21.8
2004 09 02    05 22.60   +37 05.7    0.999    1.262    77.8    51.4    21.7
2004 09 12    05 58.74   +36 58.4    0.948    1.258    80.1    52.0    21.6
2004 09 22    06 34.12   +36 09.7    0.895    1.254    82.4    52.5    21.5
2004 10 02    07 08.16   +34 39.8    0.841    1.249    84.9    53.0    21.4
2004 10 12    07 40.44   +32 29.9    0.786    1.244    87.6    53.3    21.2
2004 10 22    08 10.53   +29 41.0    0.729    1.239    90.5    53.4    21.0
2004 11 01    08 38.23   +26 13.9    0.673    1.234    93.6    53.4    20.9
2004 11 11    09 03.41   +22 08.7    0.616    1.228    97.0    53.1    20.6
2004 11 21    09 25.85   +17 24.7    0.561    1.223   100.6    52.5    20.4
2004 12 01    09 45.43   +12 00.4    0.509    1.218   104.5    51.6    20.2
2004 12 11    10 01.89   +05 53.7    0.460    1.213   108.7    50.3    19.9
2004 12 21    10 14.73   -00 55.1    0.415    1.208   113.0    48.5    19.6
2004 12 31    10 23.40   -08 22.5    0.377    1.204   117.3    46.5    19.3
2005 01 10    10 27.00   -16 16.7    0.345    1.200   121.4    44.4    19.1
2005 01 20    10 24.45   -24 11.8    0.321    1.196   124.7    42.6    18.9
2005 01 30    10 15.08   -31 30.1    0.306    1.194   126.8    41.4    18.7
2005 02 09    09 58.95   -37 26.7    0.298    1.191   127.4    41.1    18.7
2005 02 19    09 38.40   -41 23.3    0.296    1.190   126.8    41.7    18.7
2005 03 01    09 18.03   -43 08.9    0.299    1.189   125.3    42.9    18.7
2005 03 11    09 02.59   -42 57.5    0.306    1.189   123.3    44.3    18.8
2005 03 21    08 55.38   -41 19.4    0.314    1.190   121.2    45.7    18.9
2005 03 31    08 57.09   -38 48.0    0.324    1.191   119.2    47.1    19.0
2005 04 10    09 06.87   -35 46.0    0.335    1.193   117.3    48.3    19.1
2005 04 20    09 23.59   -32 31.1    0.347    1.196   115.5    49.3    19.2
2005 04 30    09 45.76   -29 15.8    0.362    1.199   113.6    50.3    19.4
2005 05 10    10 12.10   -26 07.3    0.379    1.203   111.7    51.2    19.5
2005 05 20    10 41.55   -23 13.4    0.400    1.207   109.7    52.1    19.6
2005 05 30    11 12.97   -20 39.5    0.425    1.212   107.6    52.9    19.8
2005 06 09    11 45.52   -18 28.2    0.455    1.217   105.3    53.6    20.0
2005 06 19    12 18.55   -16 42.0    0.489    1.222   102.9    54.2    20.2
2005 06 29    12 51.50   -15 19.7    0.528    1.227   100.4    54.6    20.3
2005 07 09    13 24.09   -14 19.1    0.571    1.233    97.9    54.8    20.5
2005 07 19    13 56.22   -13 37.3    0.617    1.238    95.4    54.8    20.7
2005 07 29    14 27.80   -13 09.9    0.666    1.243    93.0    54.7    20.9
2005 08 08    14 58.91   -12 53.0    0.718    1.248    90.6    54.3    21.0
2005 08 18    15 29.67   -12 42.7    0.771    1.253    88.2    53.9    21.2
2005 08 28    16 00.13   -12 34.9    0.825    1.257    85.8    53.3    21.3
2005 09 07    16 30.45   -12 26.5    0.880    1.261    83.5    52.6    21.5
2005 09 17    17 00.71   -12 14.2    0.935    1.265    81.3    51.8    21.6
2005 09 27    17 30.96   -11 55.2    0.989    1.268    79.1    50.9    21.7
2005 10 07    18 01.28   -11 27.4    1.043    1.270    76.9    50.0    21.8
2005 10 17    18 31.69   -10 48.6    1.096    1.272    74.7    49.1    21.9
2005 10 27    19 02.16   -09 57.7    1.148    1.273    72.5    48.1    21.9
2005 11 06    19 32.72   -08 53.5    1.199    1.274    70.4    47.1    22.0

Timothy B. Spahr             (C) Copyright 2004 MPC           M.P.E.C. 2004-O44

Read MPEC 2004-O43 Read MPEC 2004-O45


Our Web policy. Index to the CBAT/MPC/ICQ pages.


Valid HTML 4.01!